Location: Unspecified
(0.0000°N, 0.0000°E)
Time: 08:51:31
(UTC+02:00)

Centaur D-1AR AC-41 - Visible Passes

Search period start: 28 August 2016 00:00
Search period end: 07 September 2016 00:00
Orbit: 640 x 36201 km, 21.7° (Epoch: 27 August)

Date Brightness Start Highest point End Pass type
(mag) Time Alt. Az. Time Alt. Az. Time Alt. Az.
28 Aug 5.8 06:32:09 10° NNE 06:33:19 10° NNE 06:34:42 10° NE visible
29 Aug 7.1 15:27:05 10° W 17:03:37 44° WSW 01:14:35 37° W visible
30 Aug 6.4 12:45:06 10° WNW 13:32:08 75° SSW 22:50:21 63° E visible
31 Aug 6.6 10:12:14 10° WNW 18:59:17 64° SSE 20:24:41 10° E visible
02 Sep 10.3 17:03:07 10° W 18:24:41 23° WSW 21:21:11 10° WSW visible
03 Sep 6.4 14:03:04 10° W 15:35:21 59° SW 00:01:08 70° WNW visible
04 Sep 6.8 11:26:16 10° WNW 21:14:09 73° SSE 21:36:53 29° E visible
06 Sep 5.8 06:26:29 10° N 06:30:03 16° NE 06:36:57 10° ENE visible
